EHI
0 0 0 0 0 0 0 0 0 0 0 0 0 0 0 0 0 0 0 0 0 0 0 0 0 0 0 0 0 0 0 0 0 0 0 0 0 0 0 0 0 0 0 0
0 0 0 0 0 0 0 0 0 0 0 0 0 0 0 0 0 0 0 0 0 0 0 0 0 0 0 0 0 0 0 0 0 0 0 0 0 0 0 0 0 0 0 0
0 0 0 0 0 0 0 0 0 0 0 0 0 0 0 0 0 0 0 0 0 0 0 0 0 0 0 0 0 0 0 0 0 0 0 0 0 0 0 0 0 0 0 0
0 0 0 0 0 0 0 0 0 0 0 0 0 0 0 0 0 0 0 0 0 0 0 0 0 0 0 0 0 0 0 0 0 0 0 0 0 0 0 0 0 0 0 0
0 0 0 0 0 0 0 0 0 0 0 0 0 0 0 0 0 0 0 0 0 0 0 0 0 0 0 0 0 0 0 0 0 0 0 0 0 0 0 0 0 0 0 0
0 0 0 0 0 0 0 0 0 0 0 0 0 0 0 0 0 0 0 0 0 0 0 0 0 0 0 0 0 0 0 0 0 0 0 0 0 0 0 0 0 0 0 0
0 0 0 0 0 0 0 0 0 0 0 0 0 0 0 0 0 0 0 0 0 0 0 0 0 0 0 0 0 0 0 0 0 0 0 0 0 0 0 0 0 0 0 0
0 0 0 0 0 0 0 0 0 0 0 0 0 0 0 0 0 0 0 0 0 0 0 0 0 0 0 0 0 0 0 0 0 0 0 0 0 0 0 0 0 0 0 0
0 0 0 0 0 0 0 0 0 0 0 0 0 0 0 0 0 0 0 0 0 0 0 0 0 0 0 0 0 0 0 0 0 0 0 0 0 0 0 0 0 0 0 0
0 0 0 0 0 0 0 0 0 0 0 0 0 0 0 0 0 0 0 0 0 0 0 0 0 0 0 0 0 0 0 0 0 0 0 0 0 0 0 0 0 0 0 0
0 0 0 0 0 0 0 0 0 0 0 0 0 0 0 0 0 0 0 0 0 0 0 0 0 0 0 0 0 0 0 0 0 0 0 0 0 0 0 0 0 0 0 0
0 0 0 0 0 0 0 0 0 0 0 0 0 0 0 0 0 0 0 0 0 0 0 0 0 0 0 0 0 0 0 0 0 0 0 0 0 0 0 0 0 0 0 0
0 0 0 0 0 0 0 0 0 0 0 0 0 0 0 0 0 0 0 0 0 0 0 0 0 0 0 0 0 0 0 0 0 0 0 0 0 0 0 0 0 0 0 0
0 0 0 0 0 0 0 0 0 0 0 0 0 0 0 0 0 0 0 0 0 0 0 0 0 0 0 0 0 0 0 0 0 0 0 0 0 0 0 0 0 0 0 0
0 0 0 0 0 0 0 0 0 0 0 0 0 0 0 0 0 0 0 0 0 0 0 0 0 0 0 0 0 0 0 0 0 0 0 0 0 0 0 0 0 0 0 0
0 0 0 0 0 0 0 0 0 0 0 0 0 0 0 0 0 0 0 0 0 0 0 0 0 0 0 0 0 0 0 0 0 0 0 0 0 0 0 0 0 0 0 0
0 0 0 0 0 0 0 0 0 0 0 0 0 0 0 0 0 0 0 0 0 0 0 0 0 0 0 0 0 0 0 0 0 0 0 0 0 0 0 0 0 0 0 0
0 0 0 0 0 0 0 0 0 0 0 0 0 0 0 0 0 0 0 0 0 0 0 0 0 0 0 0 0 0 0 0 0 0 0 0 0 0 0 0 0 0 0 0
0 0 0 0 0 0 0 0 0 0 0 0 0 0 0 0 0 0 0 0 0 0 0 0 0 0 0 0 0 0 0 0 0 0 0 0 0 0 0 0 0 0 0 0
0 0 0 0 0 0 0 0 0 0 0 0 0 0 0 0 0 0 0 0 0 0 0 0 0 0 0 0 0 0 0 0 0 0 0 0 0 0 0 0 0 0 0 0
0 0 0 0 0 0 0 0 0 0 0 0 0 0 0 0 0 0 0 0 0 0 0 0 0 0 0 0 0 0 0 0 0 0 0 0 0 0 0 0 0 0 0 0
0 0 0 0 0 0 0 0 0 0 0 0 0 0 0 0 0 0 0 0 0 0 0 0 0 0 0 0 0 0 0 0 0 0 0 0 0 0 0 0 0 0 0 0
0 0 0 0 0 0 0 0 0 0 0 0 0 0 0 0 0 0 0 0 0 0 0 0 0 0 0 0 0 0 0 0 0 0 0 0 0 0 0 0 0 0 0 0
0 0 0 0 0 0 0 0 0 0 0 0 0 0 0 0 0 0 0 0 0 0 0 0 0 0 0 0 0 0 0 0 0 0 0 0 0 0 0 0 0 0 0 0
0 0 0 0 0 0 0 0 0 0 0 0 0 0 0 0 0 0 0 0 0 0 0 0 0 0 0 0 0 0 0 0 0 0 0 0 0 0 0 0 0 0 0 0
0 0 0 0 0 0 0 0 0 0 0 0 0 0 0 0 0 0 0 0 0 0 0 0 0 0 0 0 0 0 0 0 0 0 0 0 0 0 0 0 0 0 0 0
0 0 0 0 0 0 0 0 0 0 0 0 0 0 0 0 0 0 0 0 0 0 0 0 0 0 0 0 0 0 0 0 0 0 0 0 0 0 0 0 0 0 0 0
Wind_Speed
2 1 3 5 7 10 12 10 10 8 9 11 8 7 5 5 6 6 6 7 8 8 7 6 6 5 5 4 4 4 4 4 4 3 3 3 4 4 5 5 5 5 5 6
1 0 3 4 7 9 12 11 13 11 14 8 6 5 5 6 7 8 9 9 8 8 8 8 8 7 6 5 5 4 5 4 4 4 4 4 4 4 5 5 5 5 6 6
1 1 2 7 10 12 8 8 9 16 15 5 6 8 9 9 9 11 11 10 9 10 9 9 8 8 7 6 5 5 5 5 4 4 4 4 4 5 5 5 5 5 5 5
1 1 6 8 2 5 7 8 10 9 8 7 11 10 8 8 10 10 9 8 8 8 8 7 7 7 6 6 6 6 5 5 5 5 5 4 4 5 4 4 4 4 4 5
3 2 8 8 3 5 6 7 7 11 12 9 5 3 5 6 8 8 7 6 6 6 7 7 8 8 8 7 6 6 6 5 5 5 5 5 5 4 3 4 4 3 3 4
3 2 6 6 2 2 3 5 3 4 8 6 4 3 5 3 4 4 3 4 5 6 6 8 8 8 8 7 7 6 6 5 5 5 5 5 5 4 3 3 3 3 2 2
4 4 8 7 3 3 2 5 4 3 5 4 6 5 2 2 3 4 4 4 6 7 7 7 8 8 8 7 7 6 6 5 5 5 5 5 4 3 4 3 3 2 1 1
5 5 9 3 3 4 5 4 4 4 3 2 2 1 2 3 4 4 5 5 6 6 5 6 8 8 7 7 6 6 6 6 5 5 5 4 5 4 3 3 3 2 1 2
7 8 5 2 4 3 2 3 3 3 2 1 2 1 2 3 3 3 4 5 4 5 5 5 7 8 8 6 7 7 7 6 5 5 4 4 5 5 3 3 3 2 2 3
4 6 5 5 4 3 3 3 2 1 1 1 1 2 2 2 2 3 3 4 5 6 6 6 7 7 7 7 8 8 7 7 6 6 5 4 4 4 4 4 4 4 4 4
5 6 6 4 2 3 3 2 1 2 1 0 1 1 1 2 2 2 3 3 4 6 6 7 7 7 7 8 9 8 8 7 6 6 5 5 5 4 5 5 6 5 5 4
4 3 3 6 5 4 3 3 2 1 1 2 1 0 0 0 0 1 2 3 4 5 6 6 7 8 8 9 10 9 8 8 6 6 5 5 4 4 8 8 10 12 10 7
5 4 4 6 5 3 2 2 2 0 0 1 2 1 1 0 1 0 1 2 4 5 5 5 6 7 8 9 10 11 9 8 6 6 6 6 5 5 4 6 10 11 11 11
5 4 5 4 4 4 2 2 1 2 3 2 2 2 2 1 1 1 2 3 3 4 4 5 6 7 7 9 10 10 9 10 9 7 7 6 6 6 5 4 4 4 7 11
6 5 5 5 4 3 2 1 1 2 2 3 2 2 2 2 2 3 3 3 3 3 3 4 5 6 5 8 10 10 9 7 7 6 6 6 6 6 5 6 5 4 3 4
9 7 5 4 3 2 2 1 1 1 2 2 3 3 3 3 3 3 3 3 2 3 3 4 5 4 4 7 8 8 8 11 9 6 6 6 6 6 6 6 6 5 5 5
6 6 5 5 5 3 2 1 1 1 1 2 3 3 3 3 3 3 4 4 3 3 3 3 4 4 3 5 7 6 5 7 12 7 7 7 7 7 7 6 6 6 6 6
6 6 5 5 4 3 2 1 2 2 2 3 3 3 3 3 4 4 5 4 3 2 2 3 4 3 3 3 4 4 4 5 6 6 6 6 6 6 6 6 7 7 5 5
6 5 5 4 4 3 2 2 3 3 3 3 3 3 3 3 4 4 4 4 3 4 4 5 7 3 3 3 3 3 4 5 5 5 5 8 8 6 6 6 6 6 5 5
5 5 4 4 4 3 3 3 3 3 3 3 3 3 3 4 4 4 4 2 2 3 5 6 5 3 3 3 3 2 4 5 5 5 5 6 6 6 6 6 6 6 6 6
5 4 4 3 3 3 3 3 3 3 3 3 3 3 4 4 4 4 3 3 3 4 5 7 4 3 3 3 3 2 3 4 4 5 5 5 5 5 6 6 6 6 6 5
4 3 3 3 3 3 3 2 3 3 3 3 3 3 4 4 4 4 2 2 4 8 5 3 3 5 6 5 2 2 3 4 4 4 4 5 5 5 5 6 6 6 5 5
4 4 4 4 4 4 4 3 3 3 3 3 3 3 3 3 3 3 3 3 4 8 5 4 7 10 9 3 2 3 4 4 4 4 4 4 5 5 5 6 5 5 5 5
5 5 5 4 4 4 5 4 3 3 3 4 4 3 3 3 3 2 3 7 9 9 4 6 10 10 8 2 2 2 3 3 4 4 4 4 4 4 4 5 5 4 5 5
5 5 5 5 5 5 5 5 4 4 4 4 4 4 3 2 3 3 3 4 7 7 4 6 9 9 5 2 2 3 3 3 4 4 4 4 4 4 4 4 4 4 4 5
5 5 5 5 5 4 4 3 3 3 3 4 3 3 2 2 3 3 3 3 5 6 4 3 4 5 3 3 3 3 3 4 4 4 4 4 4 4 4 4 6 5 4 5
5 5 4 5 5 4 4 4 5 5 4 4 4 3 2 2 2 3 3 3 3 3 3 3 3 3 3 3 3 3 3 3 3 3 3 3 3 4 4 5 4 4 4 4
Wind_Direction
221 197 165 201 204 196 208 217 227 237 232 247 257 262 249 218 200 193 197 196 195 192 185 176 170 168 163 156 151 143 137 133 129 120 111 100 92 82 75 71 68 65 65 65
340 243 198 239 230 218 225 230 238 254 260 240 248 246 235 216 200 204 210 209 203 193 185 183 179 174 167 164 160 151 148 146 142 134 125 115 106 98 90 79 70 66 62 60
269 330 7 264 227 207 207 210 206 236 250 238 236 234 228 218 208 211 214 209 201 197 192 187 181 172 171 166 157 154 154 150 150 145 136 127 119 106 95 87 78 68 60 58
144 89 242 245 255 200 217 240 225 242 259 242 235 240 234 215 208 216 213 206 201 191 182 172 164 160 154 153 157 159 158 156 155 149 139 132 124 113 103 95 85 74 63 56
144 228 278 293 270 190 197 265 234 238 256 258 254 268 271 228 208 213 210 200 189 173 161 155 157 155 151 157 161 162 164 164 160 155 149 142 134 125 114 105 93 83 74 64
153 215 255 260 282 182 142 286 276 238 257 255 180 213 259 228 184 177 153 145 143 137 136 150 156 153 156 164 168 173 169 164 159 156 153 150 144 130 117 117 117 108 90 67
181 235 266 260 264 139 187 263 300 280 268 230 199 217 246 117 110 118 116 119 128 136 147 158 156 156 165 171 181 171 157 156 157 155 155 152 144 135 135 130 128 128 116 22
178 214 255 260 149 182 229 276 304 307 298 216 198 147 91 101 109 115 116 123 134 142 150 155 160 165 174 185 173 156 155 160 162 160 163 160 154 152 153 152 162 183 223 270
196 220 244 254 223 249 249 277 297 312 328 143 141 147 133 132 136 139 143 146 149 153 158 167 175 179 186 182 161 160 164 171 173 171 173 168 170 172 171 176 187 207 218 244
261 272 276 273 264 278 260 250 284 310 321 158 156 160 149 147 156 161 165 166 163 166 180 190 190 194 191 170 166 168 177 180 181 183 184 182 184 186 186 190 199 211 217 231
270 291 314 315 329 322 317 316 339 2 18 50 135 154 167 172 180 183 185 182 181 191 202 203 192 197 189 176 173 180 185 187 189 193 193 193 198 204 202 205 200 203 211 210
254 291 287 292 313 321 309 303 296 297 2 19 64 136 123 179 207 198 199 190 199 210 216 211 198 200 193 184 182 186 191 195 195 195 196 196 200 222 234 225 233 233 224 213
281 303 276 277 301 315 306 305 316 338 95 30 23 34 55 37 357 328 250 226 227 230 228 218 207 207 198 189 189 195 199 196 194 196 198 198 199 207 225 235 238 239 236 233
302 307 295 300 308 326 333 344 43 57 51 55 38 30 32 15 360 336 292 271 261 251 239 225 218 218 202 192 195 202 203 202 199 199 198 199 202 206 207 210 223 239 241 240
333 320 287 292 303 323 345 21 45 38 28 22 27 28 13 346 321 309 304 299 285 264 253 239 233 233 204 195 199 204 203 203 200 197 197 199 199 201 206 214 221 224 223 244
313 313 313 307 301 318 342 354 347 348 3 360 5 360 344 323 311 316 322 321 298 276 271 258 252 248 212 201 202 205 209 209 199 196 197 198 199 203 208 213 218 220 224 223
313 318 322 317 310 310 319 330 343 359 354 347 340 334 335 335 334 337 334 327 304 287 289 280 276 271 229 208 204 207 206 209 206 203 204 202 202 207 209 210 214 220 225 219
312 306 307 305 304 300 320 3 19 10 352 333 331 338 343 342 330 325 324 324 325 322 327 315 304 292 253 225 211 206 201 202 202 206 207 208 209 208 206 209 214 220 223 227
334 337 343 348 348 347 2 7 1 352 343 339 338 336 334 333 327 324 325 332 338 332 330 325 326 319 284 255 226 205 202 204 208 211 209 217 217 210 209 211 214 214 215 215
337 343 354 2 8 11 7 358 350 342 343 344 341 337 337 335 331 327 327 325 326 310 313 323 327 316 296 273 243 214 212 213 215 216 213 215 215 212 211 213 213 214 216 218
325 333 342 346 348 353 348 336 327 321 327 332 329 322 320 322 327 325 323 316 323 324 323 330 330 314 299 286 254 224 219 223 224 221 218 218 219 217 214 214 215 215 216 220
304 306 309 312 313 312 307 302 300 302 308 312 314 315 317 321 325 319 294 286 313 326 329 318 311 308 306 296 247 231 230 231 230 225 223 221 220 221 220 218 219 219 216 218
287 283 285 287 288 290 288 276 276 282 287 292 297 301 299 299 302 305 309 316 315 324 327 311 315 317 315 302 251 240 238 237 234 229 226 224 224 224 224 222 222 220 217 219
283 280 277 277 276 278 281 281 274 269 272 278 276 276 280 291 291 265 275 308 320 324 321 319 327 326 326 313 275 258 248 243 239 234 229 227 226 224 226 226 225 223 223 224
275 274 272 272 269 264 265 275 280 272 271 270 270 265 255 241 255 283 292 297 313 324 319 327 334 337 336 312 293 276 264 253 248 240 232 232 230 228 227 225 225 227 228 229
272 270 266 258 255 258 257 256 259 262 261 271 275 261 253 251 259 274 283 293 304 319 321 315 320 328 321 309 299 289 279 277 277 261 243 238 235 234 233 231 231 230 232 235
276 271 271 272 262 245 240 240 247 254 247 249 264 262 252 255 261 270 281 290 299 304 304 308 312 313 311 306 300 295 288 279 271 266 257 246 240 238 238 236 236 234 233 235